Year,Month,Day,Hour,Minute,Value (Times are PST for temperature in C)
2012,11,23,00,02,8.20
2012,11,23,00,03,8.20
2012,11,23,00,04,8.20
2012,11,23,00,05,8.30
2012,11,23,00,06,8.30
2012,11,23,00,07,8.40
2012,11,23,00,08,8.40
2012,11,23,00,09,8.40
2012,11,23,00,10,8.50
2012,11,23,00,11,8.50
2012,11,23,00,12,8.60
2012,11,23,00,13,8.60
2012,11,23,00,14,8.60
2012,11,23,00,15,8.70
2012,11,23,00,16,8.70
2012,11,23,00,17,8.70
2012,11,23,00,19,8.80
2012,11,23,00,20,8.80
2012,11,23,00,21,8.80
2012,11,23,00,22,8.80
2012,11,23,00,23,8.90
2012,11,23,00,24,8.90
2012,11,23,00,25,8.90
2012,11,23,00,26,8.90
2012,11,23,00,27,8.90
2012,11,23,00,28,8.90
2012,11,23,00,29,8.90
2012,11,23,00,30,9.00
2012,11,23,00,31,9.00
2012,11,23,00,32,9.10
2012,11,23,00,34,9.10
2012,11,23,00,35,9.10
2012,11,23,00,36,9.10
2012,11,23,00,38,9.10
2012,11,23,00,39,9.10
2012,11,23,00,40,9.10
2012,11,23,00,41,9.20
2012,11,23,00,43,9.20
2012,11,23,00,44,9.20
2012,11,23,00,45,9.20
2012,11,23,00,47,9.20
2012,11,23,00,48,9.20
2012,11,23,00,49,9.20
2012,11,23,00,50,9.20
2012,11,23,00,51,9.20
2012,11,23,00,52,9.20
2012,11,23,00,53,9.20
2012,11,23,00,54,9.20
2012,11,23,00,55,9.20
2012,11,23,00,56,9.20
2012,11,23,00,57,9.20
2012,11,23,00,58,9.20
2012,11,23,00,59,9.30
2012,11,23,01,00,9.30
2012,11,23,01,01,9.30
2012,11,23,01,02,9.30
2012,11,23,01,03,9.30
2012,11,23,01,04,9.30
2012,11,23,01,05,9.30
2012,11,23,01,06,9.30
2012,11,23,01,07,9.30
2012,11,23,01,08,9.30
2012,11,23,01,09,9.30
2012,11,23,01,10,9.30
2012,11,23,01,12,9.30
2012,11,23,01,13,9.30
2012,11,23,01,14,9.30
2012,11,23,01,16,9.30
2012,11,23,01,17,9.30
2012,11,23,01,18,9.40
2012,11,23,01,19,9.30
2012,11,23,01,21,9.40
2012,11,23,01,22,9.40
2012,11,23,01,23,9.40
2012,11,23,01,24,9.40
2012,11,23,01,26,9.40
2012,11,23,01,27,9.40
2012,11,23,01,28,9.40
2012,11,23,01,29,9.40
2012,11,23,01,31,9.40
2012,11,23,01,32,9.40
2012,11,23,01,33,9.40
2012,11,23,01,34,9.30
2012,11,23,01,35,9.30
2012,11,23,01,37,9.30
2012,11,23,01,38,9.30
2012,11,23,01,39,9.30
2012,11,23,01,40,9.20
2012,11,23,01,41,9.20
2012,11,23,01,42,9.20
2012,11,23,01,43,9.20
2012,11,23,01,45,9.20
2012,11,23,01,46,9.10
2012,11,23,01,47,9.10
2012,11,23,01,48,9.10
2012,11,23,01,50,9.00
2012,11,23,01,51,9.00
2012,11,23,01,52,8.90
2012,11,23,01,53,8.90
2012,11,23,01,54,8.90
2012,11,23,01,55,8.90
2012,11,23,01,56,8.80
2012,11,23,01,57,8.80
2012,11,23,01,58,8.80
2012,11,23,02,00,8.80
2012,11,23,02,01,8.70
2012,11,23,02,02,8.70
2012,11,23,02,04,8.70
2012,11,23,02,05,8.70
2012,11,23,02,06,8.70
2012,11,23,02,07,8.60
2012,11,23,02,08,8.60
2012,11,23,02,10,8.60
2012,11,23,02,11,8.60
2012,11,23,02,12,8.60
2012,11,23,02,14,8.60
2012,11,23,02,15,8.60
2012,11,23,02,16,8.60
2012,11,23,02,17,8.60
2012,11,23,02,18,8.70
2012,11,23,02,20,8.60
2012,11,23,02,21,8.70
2012,11,23,02,22,8.60
2012,11,23,02,23,8.70
2012,11,23,02,25,8.60
2012,11,23,02,26,8.60
2012,11,23,02,27,8.60
2012,11,23,02,28,8.60
2012,11,23,02,29,8.60
2012,11,23,02,30,8.60
2012,11,23,02,32,8.60
2012,11,23,02,33,8.60
2012,11,23,02,34,8.60
2012,11,23,02,35,8.60
2012,11,23,02,37,8.60
2012,11,23,02,38,8.60
2012,11,23,02,39,8.60
2012,11,23,02,40,8.60
2012,11,23,02,41,8.50
2012,11,23,02,43,8.50
2012,11,23,02,44,8.50
2012,11,23,02,45,8.40
2012,11,23,02,47,8.40
2012,11,23,02,48,8.40
2012,11,23,02,49,8.40
2012,11,23,02,50,8.40
2012,11,23,02,52,8.40
2012,11,23,02,53,8.30
2012,11,23,02,54,8.30
2012,11,23,02,55,8.30
2012,11,23,02,57,8.30
2012,11,23,02,58,8.30
2012,11,23,02,59,8.30
2012,11,23,03,00,8.30
2012,11,23,03,02,8.30
2012,11,23,03,03,8.30
2012,11,23,03,04,8.30
2012,11,23,03,05,8.30
2012,11,23,03,07,8.30
2012,11,23,03,08,8.30
2012,11,23,03,09,8.40
2012,11,23,03,10,8.40
2012,11,23,03,11,8.40
2012,11,23,03,13,8.40
2012,11,23,03,14,8.40
2012,11,23,03,15,8.40
2012,11,23,03,16,8.40
2012,11,23,03,18,8.40
2012,11,23,03,19,8.40
2012,11,23,03,20,8.50
2012,11,23,03,21,8.50
2012,11,23,03,23,8.50
2012,11,23,03,24,8.60
2012,11,23,03,25,8.60
2012,11,23,03,26,8.60
2012,11,23,03,28,8.70
2012,11,23,03,29,8.70
2012,11,23,03,30,8.70
2012,11,23,03,32,8.80
2012,11,23,03,33,8.80
2012,11,23,03,34,8.80
2012,11,23,03,36,8.80
2012,11,23,03,37,8.80
2012,11,23,03,38,8.80
2012,11,23,03,39,8.80
2012,11,23,03,40,8.90
2012,11,23,03,42,8.90
2012,11,23,03,43,8.90
2012,11,23,03,44,8.90
2012,11,23,03,45,8.90
2012,11,23,03,46,8.90
2012,11,23,03,48,8.90
2012,11,23,03,49,8.90
2012,11,23,03,50,8.90
2012,11,23,03,51,8.90
2012,11,23,03,53,8.90
2012,11,23,03,54,8.90
2012,11,23,03,55,8.90
2012,11,23,03,56,8.90
2012,11,23,03,57,8.90
2012,11,23,03,59,8.90
2012,11,23,04,00,8.90
2012,11,23,04,01,8.90
2012,11,23,04,02,8.90
2012,11,23,04,04,8.90
2012,11,23,04,05,8.90
2012,11,23,04,06,8.90
2012,11,23,04,07,8.90
2012,11,23,04,09,8.90
2012,11,23,04,10,8.90
2012,11,23,04,11,8.90
2012,11,23,04,13,8.80
2012,11,23,04,14,8.80
2012,11,23,04,15,8.80
2012,11,23,04,16,8.80
2012,11,23,04,18,8.80
2012,11,23,04,19,8.80
2012,11,23,04,20,8.80
2012,11,23,04,21,8.80
2012,11,23,04,22,8.80
2012,11,23,04,23,8.80
2012,11,23,04,25,8.80
2012,11,23,04,26,8.80
2012,11,23,04,27,8.80
2012,11,23,04,28,8.80
2012,11,23,04,30,8.80
2012,11,23,04,31,8.80
2012,11,23,04,32,8.80
2012,11,23,04,33,8.70
2012,11,23,04,34,8.70
2012,11,23,04,36,8.70
2012,11,23,04,37,8.70
2012,11,23,04,38,8.70
2012,11,23,04,39,8.70
2012,11,23,04,41,8.70
2012,11,23,04,42,8.70
2012,11,23,04,43,8.70
2012,11,23,04,45,8.70
2012,11,23,04,46,8.60
2012,11,23,04,47,8.60
2012,11,23,04,48,8.60
2012,11,23,04,50,8.60
2012,11,23,04,51,8.60
2012,11,23,04,52,8.60
2012,11,23,04,53,8.60
2012,11,23,04,55,8.60
2012,11,23,04,56,8.60
2012,11,23,04,57,8.60
2012,11,23,04,58,8.60
2012,11,23,05,00,8.60
2012,11,23,05,01,8.60
2012,11,23,05,02,8.50
2012,11,23,05,03,8.50
2012,11,23,05,05,8.60
2012,11,23,05,06,8.60
2012,11,23,05,07,8.60
2012,11,23,05,08,8.60
2012,11,23,05,09,8.60
2012,11,23,05,11,8.60
2012,11,23,05,12,8.60
2012,11,23,05,13,8.60
2012,11,23,05,14,8.70
2012,11,23,05,15,8.70
2012,11,23,05,17,8.70
2012,11,23,05,18,8.70
2012,11,23,05,19,8.80
2012,11,23,05,20,8.80
2012,11,23,05,22,8.80
2012,11,23,05,23,8.80
2012,11,23,05,24,8.80
2012,11,23,05,25,8.80
2012,11,23,05,27,8.80
2012,11,23,05,28,8.90
2012,11,23,05,29,8.90
2012,11,23,05,30,8.90
2012,11,23,05,32,8.90
2012,11,23,05,33,8.90
2012,11,23,05,34,8.90
2012,11,23,05,36,8.90
2012,11,23,05,37,8.90
2012,11,23,05,38,8.90
2012,11,23,05,39,8.90
2012,11,23,05,41,8.90
2012,11,23,05,42,8.90
2012,11,23,05,43,8.90
2012,11,23,05,44,8.90
2012,11,23,05,45,8.90
2012,11,23,05,47,8.90
2012,11,23,05,48,8.90
2012,11,23,05,49,8.90
2012,11,23,05,50,8.90
2012,11,23,05,52,8.90
2012,11,23,05,53,8.90
2012,11,23,05,54,8.90
2012,11,23,05,56,8.90
2012,11,23,05,57,8.80
2012,11,23,05,58,8.80
2012,11,23,06,00,8.80
2012,11,23,06,01,8.80
2012,11,23,06,02,8.80
2012,11,23,06,03,8.80
2012,11,23,06,05,8.80
2012,11,23,06,06,8.80
2012,11,23,06,07,8.80
2012,11,23,06,08,8.80
2012,11,23,06,10,8.80
2012,11,23,06,11,8.80
2012,11,23,06,12,8.80
2012,11,23,06,13,8.80
2012,11,23,06,14,8.70
2012,11,23,06,15,8.70
2012,11,23,06,16,8.70
2012,11,23,06,17,8.70
2012,11,23,06,18,8.70
2012,11,23,06,20,8.70
2012,11,23,06,21,8.70
2012,11,23,06,22,8.70
2012,11,23,06,23,8.70
2012,11,23,06,25,8.60
2012,11,23,06,26,8.60
2012,11,23,06,27,8.60
2012,11,23,06,28,8.60
2012,11,23,06,29,8.60
2012,11,23,06,31,8.60
2012,11,23,06,32,8.60
2012,11,23,06,33,8.60
2012,11,23,06,34,8.60
2012,11,23,06,36,8.60
2012,11,23,06,37,8.60
2012,11,23,06,38,8.60
2012,11,23,06,39,8.60
2012,11,23,06,41,8.60
2012,11,23,06,42,8.60
2012,11,23,06,43,8.60
2012,11,23,06,44,8.60
2012,11,23,06,46,8.60
2012,11,23,06,47,8.60
2012,11,23,06,48,8.60
2012,11,23,06,50,8.60
2012,11,23,06,51,8.60
2012,11,23,06,52,8.60
2012,11,23,06,53,8.50
2012,11,23,06,54,8.50
2012,11,23,06,56,8.50
2012,11,23,06,57,8.50
2012,11,23,06,58,8.40
2012,11,23,06,59,8.40
2012,11,23,07,01,8.40
2012,11,23,07,02,8.40
2012,11,23,07,03,8.40
2012,11,23,07,04,8.40
2012,11,23,07,05,8.40
2012,11,23,07,07,8.40
2012,11,23,07,08,8.40
2012,11,23,07,09,8.40
2012,11,23,07,10,8.40
2012,11,23,07,12,8.40
2012,11,23,07,13,8.40
2012,11,23,07,14,8.40
2012,11,23,07,15,8.40
2012,11,23,07,16,8.40
2012,11,23,07,18,8.40
2012,11,23,07,19,8.40
2012,11,23,07,20,8.40
2012,11,23,07,21,8.40
2012,11,23,07,23,8.40
2012,11,23,07,24,8.40
2012,11,23,07,25,8.40
2012,11,23,07,26,8.40
2012,11,23,07,27,8.40
2012,11,23,07,29,8.40
2012,11,23,07,30,8.50
2012,11,23,07,31,8.50
2012,11,23,07,32,8.50
2012,11,23,07,33,8.40
2012,11,23,07,34,8.40
2012,11,23,07,35,8.40
2012,11,23,07,36,8.40
2012,11,23,07,37,8.40
2012,11,23,07,38,8.40
2012,11,23,07,39,8.40
2012,11,23,07,40,8.40
2012,11,23,07,41,8.40
2012,11,23,07,42,8.40
2012,11,23,07,43,8.40
2012,11,23,07,44,8.40
2012,11,23,07,45,8.40
2012,11,23,07,46,8.40
2012,11,23,07,47,8.40
2012,11,23,07,48,8.40
2012,11,23,07,50,8.40
2012,11,23,07,51,8.40
2012,11,23,07,52,8.40
2012,11,23,07,53,8.40
2012,11,23,07,55,8.40
2012,11,23,07,56,8.40
2012,11,23,07,57,8.40
2012,11,23,07,58,8.30
2012,11,23,07,59,8.30
2012,11,23,08,00,8.30
2012,11,23,08,02,8.30
2012,11,23,08,03,8.30
2012,11,23,08,04,8.30
2012,11,23,08,06,8.30
2012,11,23,08,07,8.30
2012,11,23,08,08,8.30
2012,11,23,08,09,8.30
2012,11,23,08,10,8.30
2012,11,23,08,12,8.30
2012,11,23,08,13,8.20
2012,11,23,08,14,8.20
2012,11,23,08,16,8.20
2012,11,23,08,18,8.20
2012,11,23,08,19,8.20
2012,11,23,08,20,8.20
2012,11,23,08,21,8.20
2012,11,23,08,23,8.20
2012,11,23,08,24,8.30
2012,11,23,08,25,8.30
2012,11,23,08,26,8.30
2012,11,23,08,27,8.30
2012,11,23,08,28,8.30
2012,11,23,08,29,8.30
2012,11,23,08,31,8.30
2012,11,23,08,32,8.30
2012,11,23,08,33,8.30
2012,11,23,08,34,8.30
2012,11,23,08,36,8.30
2012,11,23,08,37,8.30
2012,11,23,08,38,8.30
2012,11,23,08,39,8.30
2012,11,23,08,40,8.30
2012,11,23,08,41,8.30
2012,11,23,08,42,8.30
2012,11,23,08,43,8.30
2012,11,23,08,45,8.30
2012,11,23,08,46,8.30
2012,11,23,08,47,8.30
2012,11,23,08,48,8.30
2012,11,23,08,49,8.30
2012,11,23,08,50,8.30
2012,11,23,08,52,8.30
2012,11,23,08,53,8.30
2012,11,23,08,54,8.30
2012,11,23,08,55,8.30
2012,11,23,08,56,8.30
2012,11,23,08,58,8.30
2012,11,23,08,59,8.30
2012,11,23,09,00,8.30
2012,11,23,09,01,8.30
2012,11,23,09,03,8.30
2012,11,23,09,04,8.30
2012,11,23,09,05,8.30
2012,11,23,09,06,8.40
2012,11,23,09,08,8.30
2012,11,23,09,09,8.30
2012,11,23,09,10,8.30
2012,11,23,09,11,8.30
2012,11,23,09,13,8.30
2012,11,23,09,14,8.40
2012,11,23,09,15,8.40
2012,11,23,09,16,8.40
2012,11,23,09,18,8.40
2012,11,23,09,19,8.40
2012,11,23,09,20,8.40
2012,11,23,09,21,8.40
2012,11,23,09,23,8.40
2012,11,23,09,24,8.40
2012,11,23,09,25,8.40
2012,11,23,09,26,8.40
2012,11,23,09,28,8.40
2012,11,23,09,29,8.40
2012,11,23,09,30,8.40
2012,11,23,09,31,8.30
2012,11,23,09,32,8.30
2012,11,23,09,33,8.30
2012,11,23,09,34,8.30
2012,11,23,09,35,8.30
2012,11,23,09,36,8.30
2012,11,23,09,38,8.30
2012,11,23,09,39,8.30
2012,11,23,09,40,8.30
2012,11,23,09,41,8.30
2012,11,23,09,43,8.30
2012,11,23,09,44,8.30
2012,11,23,09,45,8.30
2012,11,23,09,47,8.30
2012,11,23,09,48,8.30
2012,11,23,09,49,8.30
2012,11,23,09,50,8.30
2012,11,23,09,52,8.30
2012,11,23,09,53,8.30
2012,11,23,09,54,8.30
2012,11,23,09,55,8.30
2012,11,23,09,56,8.40
2012,11,23,09,58,8.40
2012,11,23,09,59,8.40
2012,11,23,10,00,8.40
2012,11,23,10,01,8.40
2012,11,23,10,03,8.40
2012,11,23,10,04,8.40
2012,11,23,10,05,8.40
2012,11,23,10,06,8.40
2012,11,23,10,08,8.50
2012,11,23,10,09,8.50
2012,11,23,10,10,8.50
2012,11,23,10,11,8.50
2012,11,23,10,13,8.50
2012,11,23,10,14,8.50
2012,11,23,10,15,8.50
2012,11,23,10,17,8.50
2012,11,23,10,18,8.50
2012,11,23,10,19,8.50
2012,11,23,10,20,8.50
2012,11,23,10,22,8.50
2012,11,23,10,23,8.50
2012,11,23,10,24,8.50
2012,11,23,10,25,8.50
2012,11,23,10,26,8.60
2012,11,23,10,28,8.60
2012,11,23,10,29,8.60
2012,11,23,10,30,8.60
2012,11,23,10,31,8.60
2012,11,23,10,32,8.60
2012,11,23,10,33,8.60
2012,11,23,10,34,8.60
2012,11,23,10,35,8.60
2012,11,23,10,37,8.60
2012,11,23,10,38,8.60
2012,11,23,10,39,8.60
2012,11,23,10,40,8.60
2012,11,23,10,41,8.60
2012,11,23,10,43,8.60
2012,11,23,10,44,8.60
2012,11,23,10,45,8.70
2012,11,23,10,46,8.70
2012,11,23,10,47,8.70
2012,11,23,10,48,8.70
2012,11,23,10,50,8.70
2012,11,23,10,51,8.70
2012,11,23,10,52,8.70
2012,11,23,10,53,8.70
2012,11,23,10,54,8.70
2012,11,23,10,55,8.70
2012,11,23,10,56,8.70
2012,11,23,10,57,8.70
2012,11,23,10,58,8.70
2012,11,23,10,59,8.70
2012,11,23,11,00,8.70
2012,11,23,11,01,8.70
2012,11,23,11,02,8.70
2012,11,23,11,03,8.70
2012,11,23,11,05,8.80
2012,11,23,11,06,8.70
2012,11,23,11,07,8.80
2012,11,23,11,08,8.80
2012,11,23,11,10,8.80
2012,11,23,11,11,8.80
2012,11,23,11,12,8.80
2012,11,23,11,13,8.80
2012,11,23,11,14,8.80
2012,11,23,11,16,8.80
2012,11,23,11,17,8.80
2012,11,23,11,18,8.80
2012,11,23,11,19,8.80
2012,11,23,11,21,8.80
2012,11,23,11,22,8.80
2012,11,23,11,23,8.80
2012,11,23,11,24,8.90
2012,11,23,11,26,8.90
2012,11,23,11,27,8.90
2012,11,23,11,28,8.90
2012,11,23,11,29,8.90
2012,11,23,11,30,8.90
2012,11,23,11,31,8.90
2012,11,23,11,32,8.90
2012,11,23,11,33,8.90
2012,11,23,11,34,8.90
2012,11,23,11,35,9.00
2012,11,23,11,36,9.00
2012,11,23,11,37,9.00
2012,11,23,11,38,9.00
2012,11,23,11,39,9.10
2012,11,23,11,41,9.10
2012,11,23,11,42,9.10
2012,11,23,11,43,9.10
2012,11,23,11,44,9.20
2012,11,23,11,45,9.20
2012,11,23,11,46,9.20
2012,11,23,11,47,9.20
2012,11,23,11,48,9.20
2012,11,23,11,49,9.20
2012,11,23,11,50,9.30
2012,11,23,11,51,9.30
2012,11,23,11,52,9.30
2012,11,23,11,53,9.30
2012,11,23,11,54,9.30
2012,11,23,11,56,9.30
2012,11,23,11,57,9.30
2012,11,23,11,58,9.30
2012,11,23,11,59,9.30
2012,11,23,12,01,9.30
2012,11,23,12,02,9.30
2012,11,23,12,03,9.30
2012,11,23,12,04,9.30
2012,11,23,12,05,9.30
2012,11,23,12,06,9.30
2012,11,23,12,07,9.30
2012,11,23,12,09,9.40
2012,11,23,12,10,9.40
2012,11,23,12,11,9.40
2012,11,23,12,12,9.40
2012,11,23,12,13,9.40
2012,11,23,12,14,9.40
2012,11,23,12,15,9.40
2012,11,23,12,16,9.40
2012,11,23,12,17,9.40
2012,11,23,12,18,9.40
2012,11,23,12,19,9.40
2012,11,23,12,20,9.40
2012,11,23,12,21,9.40
2012,11,23,12,22,9.40
2012,11,23,12,23,9.30
2012,11,23,12,24,9.30
2012,11,23,12,25,9.30
2012,11,23,12,26,9.30
2012,11,23,12,27,9.30
2012,11,23,12,28,9.30
2012,11,23,12,29,9.30
2012,11,23,12,30,9.30
2012,11,23,12,32,9.30
2012,11,23,12,33,9.30
2012,11,23,12,34,9.30
2012,11,23,12,36,9.30
2012,11,23,12,37,9.30
2012,11,23,12,38,9.30
2012,11,23,12,39,9.30
2012,11,23,12,40,9.30
2012,11,23,12,42,9.30
2012,11,23,12,43,9.30
2012,11,23,12,44,9.30
2012,11,23,12,45,9.30
2012,11,23,12,47,9.30
2012,11,23,12,48,9.30
2012,11,23,12,49,9.30
2012,11,23,12,50,9.30
2012,11,23,12,52,9.40
2012,11,23,12,53,9.40
2012,11,23,12,54,9.40
2012,11,23,12,56,9.40
2012,11,23,12,57,9.40
2012,11,23,12,58,9.40
2012,11,23,12,59,9.40
2012,11,23,13,00,9.40
2012,11,23,13,01,9.40
2012,11,23,13,02,9.40
2012,11,23,13,03,9.40
2012,11,23,13,04,9.40
2012,11,23,13,05,9.40
2012,11,23,13,06,9.40
2012,11,23,13,07,9.40
2012,11,23,13,08,9.50
2012,11,23,13,10,9.50
2012,11,23,13,11,9.50
2012,11,23,13,12,9.50
2012,11,23,13,13,9.50
2012,11,23,13,15,9.50
2012,11,23,13,16,9.50
2012,11,23,13,17,9.50
2012,11,23,13,18,9.50
2012,11,23,13,20,9.50
2012,11,23,13,21,9.50
2012,11,23,13,22,9.50
2012,11,23,13,23,9.50
2012,11,23,13,24,9.50
2012,11,23,13,26,9.40
2012,11,23,13,27,9.40
2012,11,23,13,28,9.40
2012,11,23,13,30,9.40
2012,11,23,13,31,9.40
2012,11,23,13,32,9.40
2012,11,23,13,33,9.40
2012,11,23,13,34,9.40
2012,11,23,13,35,9.40
2012,11,23,13,36,9.40
2012,11,23,13,38,9.40
2012,11,23,13,39,9.40
2012,11,23,13,40,9.40
2012,11,23,13,41,9.40
2012,11,23,13,42,9.40
2012,11,23,13,43,9.40
2012,11,23,13,44,9.40
2012,11,23,13,45,9.40
2012,11,23,13,47,9.40
2012,11,23,13,48,9.40
2012,11,23,13,49,9.40
2012,11,23,13,50,9.40
2012,11,23,13,52,9.40
2012,11,23,13,53,9.40
2012,11,23,13,54,9.40
2012,11,23,13,55,9.40
2012,11,23,13,56,9.40
2012,11,23,13,58,9.40
2012,11,23,13,59,9.40
2012,11,23,14,00,9.40
2012,11,23,14,01,9.40
2012,11,23,14,03,9.40
2012,11,23,14,04,9.30
2012,11,23,14,05,9.30
2012,11,23,14,07,9.30
2012,11,23,14,08,9.30
2012,11,23,14,09,9.30
2012,11,23,14,10,9.30
2012,11,23,14,12,9.30
2012,11,23,14,13,9.30
2012,11,23,14,14,9.30
2012,11,23,14,15,9.30
2012,11,23,14,16,9.30
2012,11,23,14,17,9.30
2012,11,23,14,19,9.30
2012,11,23,14,20,9.30
2012,11,23,14,21,9.30
2012,11,23,14,23,9.30
2012,11,23,14,24,9.30
2012,11,23,14,25,9.30
2012,11,23,14,26,9.30
2012,11,23,14,27,9.40
2012,11,23,14,29,9.40
2012,11,23,14,30,9.40
2012,11,23,14,31,9.40
2012,11,23,14,32,9.40
2012,11,23,14,34,9.40
2012,11,23,14,35,9.40
2012,11,23,14,36,9.40
2012,11,23,14,37,9.40
2012,11,23,14,38,9.40
2012,11,23,14,39,9.40
2012,11,23,14,40,9.40
2012,11,23,14,42,9.40
2012,11,23,14,43,9.40
2012,11,23,14,44,9.40
2012,11,23,14,46,9.50
2012,11,23,14,47,9.50
2012,11,23,14,48,9.50
2012,11,23,14,49,9.50
2012,11,23,14,51,9.50
2012,11,23,14,52,9.50
2012,11,23,14,53,9.50
2012,11,23,14,54,9.50
2012,11,23,14,56,9.50
2012,11,23,14,57,9.50
2012,11,23,14,58,9.50
2012,11,23,14,59,9.50
2012,11,23,15,00,9.50
2012,11,23,15,02,9.50
2012,11,23,15,03,9.50
2012,11,23,15,04,9.60
2012,11,23,15,06,9.60
2012,11,23,15,07,9.60
2012,11,23,15,08,9.60
2012,11,23,15,09,9.60
2012,11,23,15,10,9.60
2012,11,23,15,12,9.60
2012,11,23,15,13,9.50
2012,11,23,15,14,9.50
2012,11,23,15,15,9.50
2012,11,23,15,17,9.50
2012,11,23,15,18,9.50
2012,11,23,15,19,9.50
2012,11,23,15,20,9.50
2012,11,23,15,21,9.50
2012,11,23,15,23,9.50
2012,11,23,15,24,9.40
2012,11,23,15,25,9.40
2012,11,23,15,26,9.50
2012,11,23,15,28,9.40
2012,11,23,15,29,9.50
2012,11,23,15,30,9.50
2012,11,23,15,31,9.40
2012,11,23,15,32,9.50
2012,11,23,15,33,9.50
2012,11,23,15,34,9.50
2012,11,23,15,35,9.50
2012,11,23,15,36,9.50
2012,11,23,15,37,9.50
2012,11,23,15,38,9.40
2012,11,23,15,39,9.40
2012,11,23,15,40,9.40
2012,11,23,15,41,9.40
2012,11,23,15,43,9.40
2012,11,23,15,44,9.40
2012,11,23,15,45,9.40
2012,11,23,15,46,9.40
2012,11,23,15,47,9.40
2012,11,23,15,48,9.40
2012,11,23,15,49,9.40
2012,11,23,15,50,9.40
2012,11,23,15,51,9.40
2012,11,23,15,52,9.40
2012,11,23,15,54,9.40
2012,11,23,15,55,9.40
2012,11,23,15,56,9.40
2012,11,23,15,57,9.40
2012,11,23,15,59,9.30
2012,11,23,16,00,9.40
2012,11,23,16,01,9.30
2012,11,23,16,02,9.30
2012,11,23,16,04,9.30
2012,11,23,16,05,9.30
2012,11,23,16,06,9.30
2012,11,23,16,07,9.30
2012,11,23,16,09,9.30
2012,11,23,16,11,9.30
2012,11,23,16,12,9.30
2012,11,23,16,14,9.30
2012,11,23,16,15,9.30
2012,11,23,16,16,9.30
2012,11,23,16,17,9.30
2012,11,23,16,18,9.30
2012,11,23,16,19,9.30
2012,11,23,16,20,9.30
2012,11,23,16,21,9.30
2012,11,23,16,22,9.30
2012,11,23,16,24,9.30
2012,11,23,16,25,9.20
2012,11,23,16,26,9.30
2012,11,23,16,27,9.20
2012,11,23,16,28,9.20
2012,11,23,16,30,9.20
2012,11,23,16,31,9.20
2012,11,23,16,32,9.20
2012,11,23,16,33,9.20
2012,11,23,16,34,9.20
2012,11,23,16,35,9.20
2012,11,23,16,36,9.20
2012,11,23,16,37,9.20
2012,11,23,16,38,9.20
2012,11,23,16,39,9.20
2012,11,23,16,40,9.20
2012,11,23,16,41,9.20
2012,11,23,16,42,9.20
2012,11,23,16,43,9.20
2012,11,23,16,44,9.20
2012,11,23,16,45,9.10
2012,11,23,16,46,9.10
2012,11,23,16,47,9.10
2012,11,23,16,49,9.10
2012,11,23,16,50,9.10
2012,11,23,16,51,9.10
2012,11,23,17,07,8.90
2012,11,23,17,08,8.90
2012,11,23,17,09,8.90
2012,11,23,17,10,8.90
2012,11,23,17,11,8.90
2012,11,23,17,12,8.90
2012,11,23,17,13,8.80
2012,11,23,17,14,8.80
2012,11,23,17,15,8.80
2012,11,23,17,16,8.80
2012,11,23,17,17,8.80
2012,11,23,17,18,8.80
2012,11,23,17,20,8.80
2012,11,23,17,22,8.80
2012,11,23,17,23,8.80
2012,11,23,17,24,8.80
2012,11,23,17,25,8.80
2012,11,23,17,26,8.80
2012,11,23,17,27,8.80
2012,11,23,17,28,8.80
2012,11,23,17,29,8.80
2012,11,23,17,30,8.80
2012,11,23,17,31,8.80
2012,11,23,17,32,8.80
2012,11,23,17,34,8.80
2012,11,23,17,35,8.80
2012,11,23,17,36,8.80
2012,11,23,17,37,8.80
2012,11,23,17,39,8.80
2012,11,23,17,40,8.80
2012,11,23,17,41,8.80
2012,11,23,17,42,8.80
2012,11,23,17,44,8.80
2012,11,23,17,45,8.80
2012,11,23,17,46,8.80
2012,11,23,17,47,8.80
2012,11,23,17,48,8.80
2012,11,23,17,50,8.80
2012,11,23,17,51,8.80
2012,11,23,17,52,8.80
2012,11,23,17,53,8.80
2012,11,23,17,54,8.80
2012,11,23,17,56,8.80
2012,11,23,17,57,8.80
2012,11,23,17,58,8.80
2012,11,23,17,59,8.80
2012,11,23,18,01,8.80
2012,11,23,18,02,8.80
2012,11,23,18,03,8.80
2012,11,23,18,04,8.80
2012,11,23,18,06,8.80
2012,11,23,18,07,8.80
2012,11,23,18,08,8.80
2012,11,23,18,09,8.80
2012,11,23,18,11,8.80
2012,11,23,18,12,8.80
2012,11,23,18,13,8.80
2012,11,23,18,14,8.80
2012,11,23,18,15,8.80
2012,11,23,18,16,8.90
2012,11,23,18,17,8.90
2012,11,23,18,18,8.90
2012,11,23,18,19,8.90
2012,11,23,18,20,8.90
2012,11,23,18,21,8.90
2012,11,23,18,22,8.90
2012,11,23,18,23,8.90
2012,11,23,18,25,8.90
2012,11,23,18,26,8.90
2012,11,23,18,27,8.90
2012,11,23,18,28,8.90
2012,11,23,18,29,8.90
2012,11,23,18,30,8.90
2012,11,23,18,31,8.90
2012,11,23,18,32,8.80
2012,11,23,18,34,8.90
2012,11,23,18,35,8.90
2012,11,23,18,36,8.90
2012,11,23,18,37,8.80
2012,11,23,18,38,8.80
2012,11,23,18,39,8.80
2012,11,23,18,40,8.90
2012,11,23,18,41,8.90
2012,11,23,18,43,8.90
2012,11,23,18,44,8.90
2012,11,23,18,45,8.90
2012,11,23,18,46,8.90
2012,11,23,18,47,8.90
2012,11,23,18,48,8.90
2012,11,23,18,49,8.90
2012,11,23,18,50,8.90
2012,11,23,18,51,8.90
2012,11,23,18,52,8.90
2012,11,23,18,53,8.90
2012,11,23,18,54,8.90
2012,11,23,18,55,8.90
2012,11,23,18,56,8.90
2012,11,23,18,57,8.90
2012,11,23,18,59,8.90
2012,11,23,19,00,8.90
2012,11,23,19,01,8.90
2012,11,23,19,02,8.90
2012,11,23,19,03,8.90
2012,11,23,19,04,8.90
2012,11,23,19,05,8.90
2012,11,23,19,06,8.90
2012,11,23,19,07,8.90
2012,11,23,19,08,8.90
2012,11,23,19,10,8.90
2012,11,23,19,11,8.90
2012,11,23,19,12,8.90
2012,11,23,19,13,8.90
2012,11,23,19,15,8.90
2012,11,23,19,16,8.90
2012,11,23,19,17,8.90
2012,11,23,19,18,8.90
2012,11,23,19,19,8.90
2012,11,23,19,20,8.90
2012,11,23,19,21,8.90
2012,11,23,19,22,9.00
2012,11,23,19,23,9.00
2012,11,23,19,24,9.00
2012,11,23,19,25,9.00
2012,11,23,19,26,9.00
2012,11,23,19,27,9.00
2012,11,23,19,28,9.00
2012,11,23,19,30,9.10
2012,11,23,19,31,9.10
2012,11,23,19,32,9.10
2012,11,23,19,33,9.10
2012,11,23,19,34,9.10
2012,11,23,19,35,9.10
2012,11,23,19,36,9.10
2012,11,23,19,37,9.10
2012,11,23,19,39,9.10
2012,11,23,19,40,9.10
2012,11,23,19,41,9.00
2012,11,23,19,42,9.10
2012,11,23,19,43,9.10
2012,11,23,19,45,9.10
2012,11,23,19,46,9.10
2012,11,23,19,47,9.10
2012,11,23,19,48,9.10
2012,11,23,19,49,9.10
2012,11,23,19,50,9.10
2012,11,23,19,51,9.10
2012,11,23,19,52,9.10
2012,11,23,19,53,9.10
2012,11,23,19,54,9.10
2012,11,23,19,55,9.10
2012,11,23,19,56,9.10
2012,11,23,19,57,9.10
2012,11,23,19,58,9.10
2012,11,23,19,59,9.10
2012,11,23,20,00,9.10
2012,11,23,20,02,9.00
2012,11,23,20,03,9.00
2012,11,23,20,04,8.90
2012,11,23,20,05,8.90
2012,11,23,20,06,8.90
2012,11,23,20,07,8.90
2012,11,23,20,08,8.90
2012,11,23,20,09,8.90
2012,11,23,20,11,8.80
2012,11,23,20,12,8.80
2012,11,23,20,13,8.80
2012,11,23,20,14,8.80
2012,11,23,20,15,8.80
2012,11,23,20,17,8.80
2012,11,23,20,18,8.80
2012,11,23,20,19,8.80
2012,11,23,20,20,8.80
2012,11,23,20,21,8.80
2012,11,23,20,22,8.80
2012,11,23,20,23,8.80
2012,11,23,20,24,8.80
2012,11,23,20,25,8.80
2012,11,23,20,26,8.80
2012,11,23,20,27,8.80
2012,11,23,20,28,8.80
2012,11,23,20,29,8.70
2012,11,23,20,30,8.70
2012,11,23,20,32,8.70
2012,11,23,20,33,8.70
2012,11,23,20,34,8.70
2012,11,23,20,35,8.70
2012,11,23,20,36,8.70
2012,11,23,20,37,8.60
2012,11,23,20,38,8.60
2012,11,23,20,39,8.60
2012,11,23,20,40,8.60
2012,11,23,20,41,8.60
2012,11,23,20,42,8.50
2012,11,23,20,43,8.50
2012,11,23,20,45,8.40
2012,11,23,20,46,8.40
2012,11,23,20,47,8.40
2012,11,23,20,48,8.30
2012,11,23,20,50,8.30
2012,11,23,20,51,8.30
2012,11,23,20,52,8.30
2012,11,23,20,54,8.30
2012,11,23,20,55,8.20
2012,11,23,20,56,8.20
2012,11,23,20,58,8.20
2012,11,23,20,59,8.20
2012,11,23,21,00,8.10
2012,11,23,21,01,8.10
2012,11,23,21,03,8.10
2012,11,23,21,04,8.10
2012,11,23,21,05,8.10
2012,11,23,21,06,8.00
2012,11,23,21,08,8.00
2012,11,23,21,09,8.00
2012,11,23,21,10,8.00
2012,11,23,21,11,7.90
2012,11,23,21,13,7.90
2012,11,23,21,14,7.90
2012,11,23,21,15,7.90
2012,11,23,21,16,7.90
2012,11,23,21,17,7.90
2012,11,23,21,19,7.90
2012,11,23,21,20,7.90
2012,11,23,21,21,7.90
2012,11,23,21,22,7.90
2012,11,23,21,24,7.90
2012,11,23,21,25,7.90
2012,11,23,21,26,7.90
2012,11,23,21,28,7.90
2012,11,23,21,29,7.90
2012,11,23,21,30,7.90
2012,11,23,21,31,7.90
2012,11,23,21,33,7.80
2012,11,23,21,34,7.80
2012,11,23,21,35,7.80
2012,11,23,21,36,7.80
2012,11,23,21,37,7.80
2012,11,23,21,38,7.80